Wind_Speed
35 37 38 39 40 40 41 42 43 43 44 45 46 46 45 44 44 44 44 43 42 43 43 43 44 44 45 45 45 44 45 45 45 45 45 44 43 43 43 43 43 44 43 43
35 37 37 38 39 40 41 42 42 42 43 44 45 45 44 44 43 42 43 43 42 42 43 44 44 44 45 46 45 45 45 46 46 46 46 46 45 45 45 45 45 45 45 45
35 36 36 37 37 38 39 40 40 41 41 42 44 43 42 42 42 42 42 42 42 42 43 43 44 45 45 45 46 46 46 47 47 47 47 47 47 47 47 47 47 47 47 47
35 35 35 36 37 38 37 37 38 39 40 41 41 42 39 40 41 41 41 42 42 43 43 43 43 44 45 46 47 47 47 47 48 49 49 49 50 49 49 48 49 49 49 50
34 33 34 34 35 36 36 35 36 37 39 40 39 41 39 39 40 39 40 41 42 42 43 44 44 44 45 46 47 48 48 48 48 49 49 50 50 50 50 50 50 50 51 51
32 32 32 33 33 33 34 34 35 35 36 38 37 39 40 37 38 39 39 40 41 42 42 43 44 44 45 46 47 48 48 49 49 50 50 51 51 51 51 52 52 52 52 53
31 31 32 33 33 32 32 33 34 35 34 35 34 36 38 35 35 36 37 38 40 41 41 42 43 44 45 45 46 47 49 49 50 51 52 52 52 52 52 53 53 54 54 54
32 31 31 32 32 32 31 32 32 34 35 34 33 34 34 34 35 34 35 36 38 40 41 42 42 43 44 45 45 46 48 50 50 51 52 52 52 53 53 53 53 54 53 53
32 31 30 30 29 29 30 30 31 33 34 35 34 34 34 34 35 35 35 36 37 39 41 42 42 43 43 44 44 44 46 48 50 51 51 51 52 52 53 54 54 53 53 53
32 32 29 29 28 28 29 29 30 31 33 34 34 35 34 33 34 35 36 37 37 38 39 40 41 42 43 43 44 45 45 46 48 48 50 51 52 52 53 53 53 53 53 53
31 31 29 28 28 28 28 29 30 32 33 34 35 34 34 34 34 34 35 35 36 37 39 39 40 40 42 43 44 44 44 45 46 48 48 49 50 51 52 52 53 53 52 53
28 29 28 27 26 26 27 28 29 31 33 35 36 35 32 34 34 35 35 35 35 36 38 38 39 40 41 42 43 43 43 44 45 46 47 48 49 51 51 52 53 53 52 53
28 29 29 27 25 26 26 27 29 32 34 34 35 35 33 34 33 34 34 34 34 35 37 38 39 40 40 41 41 42 43 43 44 45 46 47 48 49 49 50 51 51 51 52
29 29 29 28 27 26 27 27 28 30 32 32 32 33 33 34 34 34 33 34 34 34 35 36 38 39 40 41 41 41 42 42 43 44 45 46 45 46 47 48 50 50 50 50
29 29 29 28 28 28 29 28 29 30 31 32 31 32 33 34 35 35 35 34 34 34 35 36 37 37 38 39 40 41 42 43 43 43 44 45 45 45 45 46 48 49 49 49
29 29 29 29 29 30 30 30 30 29 30 31 32 32 33 33 34 34 35 35 35 35 36 36 37 37 37 38 38 39 41 42 42 43 43 43 44 44 44 45 46 47 47 48
29 30 30 30 29 30 30 30 30 29 29 30 31 32 32 33 33 33 34 35 35 36 36 37 37 37 37 37 38 39 39 40 41 42 42 42 42 43 43 43 44 44 44 46
29 30 30 31 31 31 31 31 30 29 29 30 31 32 32 33 32 32 34 34 35 36 36 37 37 38 38 39 39 39 39 39 40 41 41 42 41 41 41 42 42 43 43 44
30 30 31 32 32 32 31 31 30 30 29 30 30 32 32 33 32 32 33 34 35 35 36 36 36 37 38 38 39 39 38 39 39 40 41 42 42 42 42 43 43 43 43 43
31 30 31 32 32 32 32 31 31 31 31 31 31 32 33 33 33 33 33 33 34 34 34 34 34 35 36 37 37 38 38 39 39 39 40 41 41 41 42 42 42 42 42 42
32 32 31 32 32 33 32 31 31 30 31 32 32 33 34 34 35 35 35 35 34 34 34 34 35 36 36 37 37 38 38 39 39 39 39 39 39 39 40 41 41 41 41 41
32 33 33 33 33 33 33 32 32 32 32 33 33 34 34 35 35 36 37 37 37 36 36 35 36 36 36 37 37 37 38 38 38 39 39 38 38 38 38 38 39 40 40 41
32 33 33 33 33 33 33 34 34 34 34 35 35 35 36 36 36 36 37 37 37 37 37 37 36 36 36 36 36 36 36 36 37 37 36 37 37 37 37 37 37 38 39 39
33 33 33 33 33 34 34 34 34 35 35 36 36 36 37 37 37 37 37 37 37 36 36 36 35 35 34 35 35 35 35 34 35 35 35 35 35 35 36 37 36 37 37 38
34 34 33 33 33 34 34 35 35 35 36 36 36 37 37 37 37 38 37 37 37 36 35 35 35 34 33 33 33 33 33 34 33 33 33 34 34 35 35 36 37 37 37 37
32 33 34 34 34 34 34 34 34 35 35 36 36 37 37 38 38 37 37 37 37 36 36 35 34 34 33 33 33 32 31 32 32 32 33 33 34 35 35 36 36 37 37 37
Wind_Direction
279 276 275 274 272 272 272 271 270 268 267 267 266 265 264 262 261 260 258 258 257 256 256 256 255 255 255 254 254 254 254 254 254 254 255 255 255 255 256 256 256 256 256 256
279 277 277 275 272 272 272 271 270 269 269 268 266 265 263 262 262 261 260 258 258 257 256 255 255 255 255 254 254 254 255 255 255 255 255 255 254 255 256 257 256 256 256 256
283 281 278 276 274 273 273 272 271 271 270 269 268 265 264 263 263 262 261 259 258 258 257 257 256 256 256 256 256 255 256 256 256 256 256 256 256 256 256 256 257 256 256 257
286 283 281 279 277 276 274 272 272 272 271 270 269 268 264 264 263 262 261 259 258 258 258 258 257 257 257 257 257 256 256 256 255 255 256 257 257 257 258 257 257 258 258 259
290 287 284 282 280 278 276 274 274 274 273 272 271 272 268 266 265 263 261 260 259 258 258 258 258 257 257 257 257 256 256 255 255 255 255 256 256 257 257 257 258 259 259 259
290 289 287 284 282 280 278 276 275 276 275 273 273 273 271 268 267 265 263 262 261 259 258 258 258 258 258 258 257 257 256 255 255 255 254 255 255 256 257 257 258 258 259 260
290 288 287 285 281 279 279 278 277 277 276 275 274 273 272 271 269 268 265 264 261 260 259 258 258 259 259 259 258 257 256 255 255 256 256 256 256 257 258 259 259 259 260 260
293 291 289 287 284 280 278 278 277 278 278 278 275 272 272 273 271 270 268 267 265 263 261 260 259 259 259 259 259 258 257 256 256 256 256 256 257 257 257 258 259 259 260 260
297 294 291 290 287 282 280 278 277 277 280 281 279 276 274 275 275 272 270 269 268 265 263 262 260 259 259 260 260 260 259 257 256 255 256 256 256 257 257 258 259 259 260 260
299 297 294 292 289 285 281 280 278 277 280 282 283 281 278 278 276 274 273 271 269 267 265 264 263 261 260 260 261 261 261 258 256 256 256 256 257 256 256 256 258 259 260 260
299 296 295 293 291 289 285 281 277 277 278 281 284 284 282 281 279 276 274 273 271 269 267 266 265 264 263 262 263 263 263 260 259 257 257 257 257 258 258 258 258 259 259 260
298 297 296 296 293 290 288 285 281 280 280 281 283 283 283 282 281 279 276 274 272 270 268 267 266 265 265 265 264 264 264 263 261 259 258 259 258 259 259 259 259 259 259 259
299 297 297 296 295 291 289 288 286 283 282 282 283 284 283 282 282 281 278 276 275 272 270 268 267 266 265 265 265 265 264 263 262 262 261 261 261 260 260 260 260 260 259 259
300 297 297 297 296 293 290 289 288 285 283 283 283 285 283 281 282 281 279 278 277 274 273 272 269 267 266 266 266 266 265 263 262 262 262 262 262 262 261 261 260 260 259 259
300 298 297 296 295 294 293 291 289 286 284 284 286 285 284 283 284 283 281 279 279 277 276 275 273 271 268 267 267 266 265 264 263 263 263 263 264 263 263 262 261 260 259 259
300 299 298 296 295 295 294 293 290 288 286 284 284 284 285 286 285 284 281 280 279 278 277 277 275 273 270 269 268 268 267 266 265 264 264 264 264 264 263 263 262 261 260 260
300 299 298 297 296 295 294 295 294 291 288 286 285 285 285 285 285 285 284 281 281 280 279 278 277 275 273 272 270 269 268 268 266 265 265 265 264 263 263 263 263 262 262 261
300 299 298 297 296 295 297 296 295 293 290 288 286 286 285 285 285 285 285 285 284 282 282 280 278 276 275 273 272 271 270 268 267 266 266 266 266 265 263 263 263 263 263 262
300 298 298 298 297 296 297 296 295 293 290 289 289 288 286 285 285 285 286 286 286 285 284 282 279 276 274 272 271 271 270 269 268 267 267 267 267 266 265 264 264 264 263 262
298 297 296 297 298 297 298 296 294 293 290 290 290 289 288 288 286 285 285 286 286 285 283 282 280 278 277 274 272 272 271 269 268 268 268 267 267 267 265 265 264 263 263 262
297 296 295 296 296 296 296 296 294 292 292 291 291 291 290 290 289 288 286 286 287 286 284 282 281 279 278 277 275 273 272 271 270 269 269 267 267 266 265 265 264 263 262 262
297 296 295 295 295 296 295 294 293 293 293 292 291 291 291 291 290 289 289 289 288 287 286 284 283 280 279 278 277 275 273 271 269 268 268 267 266 265 264 263 262 261 260 260
296 295 294 294 294 294 294 293 293 293 293 293 292 291 292 292 292 290 290 289 288 288 287 286 285 283 280 278 276 275 274 272 269 267 266 265 264 263 263 263 262 261 261 260
295 294 294 294 294 293 293 293 292 293 293 294 294 294 293 293 292 290 290 289 289 289 288 287 285 284 282 280 278 276 275 273 271 268 267 265 264 264 264 264 264 263 263 262
296 295 294 293 293 292 292 292 292 293 293 294 294 294 294 294 292 291 290 290 289 289 289 287 285 284 282 281 280 277 276 275 273 271 269 267 266 265 264 263 263 264 264 264
297 295 295 294 294 293 293 292 292 293 293 294 294 294 294 295 294 292 291 290 290 290 290 288 286 283 282 281 280 278 277 276 275 273 271 269 267 267 266 265 265 265 264 263
Height
5662 5661 5659 5659 5658 5657 5656 5655 5655 5657 5656 5655 5656 5658 5660 5660 5660 5661 5663 5664 5666 5667 5669 5670 5671 5673 5674 5676 5679 5681 5683 5685 5687 5689 5691 5693 5694 5696 5697 5698 5699 5700 5702 5704
5653 5651 5651 5648 5646 5645 5644 5643 5644 5645 5644 5643 5643 5645 5647 5647 5648 5650 5651 5653 5654 5656 5657 5659 5660 5661 5663 5666 5668 5670 5672 5674 5676 5678 5680 5682 5683 5685 5686 5688 5689 5691 5692 5694
5643 5642 5640 5637 5635 5634 5633 5633 5633 5632 5632 5630 5630 5632 5634 5635 5636 5638 5639 5641 5643 5645 5646 5648 5649 5651 5652 5654 5656 5658 5660 5662 5664 5666 5668 5670 5671 5673 5675 5677 5679 5680 5681 5683
5633 5632 5630 5627 5625 5624 5623 5623 5622 5621 5620 5619 5620 5618 5623 5624 5624 5626 5628 5629 5632 5634 5635 5637 5638 5640 5641 5643 5644 5646 5648 5650 5652 5654 5656 5658 5660 5662 5664 5665 5667 5668 5670 5671
5624 5622 5620 5618 5616 5614 5613 5613 5612 5611 5609 5608 5609 5608 5611 5612 5613 5615 5617 5618 5620 5622 5624 5625 5626 5628 5629 5630 5632 5634 5636 5637 5639 5641 5643 5645 5647 5649 5651 5653 5654 5656 5658 5659
5615 5613 5610 5609 5607 5605 5604 5604 5603 5601 5599 5598 5599 5599 5599 5601 5603 5604 5606 5607 5608 5610 5611 5613 5614 5615 5616 5618 5619 5621 5623 5625 5627 5628 5630 5632 5634 5637 5638 5640 5641 5643 5644 5646
5608 5605 5602 5599 5598 5597 5596 5595 5593 5591 5589 5589 5591 5588 5589 5592 5593 5593 5594 5595 5596 5597 5599 5600 5601 5603 5604 5605 5607 5608 5610 5612 5613 5615 5617 5619 5621 5623 5625 5626 5628 5629 5631 5632
5598 5597 5594 5591 5589 5588 5587 5586 5585 5583 5581 5581 5581 5579 5582 5583 5583 5583 5584 5584 5585 5585 5586 5588 5589 5590 5592 5593 5594 5595 5596 5598 5600 5602 5603 5606 5608 5610 5611 5613 5614 5615 5617 5618
5589 5588 5586 5583 5581 5579 5578 5577 5577 5575 5573 5572 5571 5571 5573 5573 5573 5573 5574 5574 5574 5574 5575 5576 5577 5578 5580 5581 5582 5582 5583 5584 5586 5588 5590 5592 5594 5596 5597 5599 5600 5601 5603 5604
5581 5579 5578 5576 5574 5571 5571 5569 5568 5566 5564 5562 5562 5563 5564 5564 5563 5563 5563 5563 5563 5563 5563 5564 5565 5567 5568 5569 5569 5570 5570 5570 5572 5574 5576 5578 5580 5582 5583 5585 5586 5587 5589 5590
5574 5572 5571 5569 5567 5565 5564 5562 5560 5559 5557 5555 5553 5556 5555 5554 5553 5553 5552 5552 5552 5552 5552 5553 5554 5555 5556 5556 5557 5558 5558 5558 5559 5561 5562 5564 5566 5567 5569 5570 5571 5573 5574 5575
5568 5565 5563 5562 5560 5558 5556 5554 5553 5552 5550 5547 5546 5549 5546 5545 5543 5542 5542 5541 5541 5541 5541 5542 5542 5543 5544 5544 5545 5545 5546 5546 5547 5548 5549 5551 5552 5553 5554 5556 5557 5558 5559 5561
5562 5559 5556 5555 5555 5552 5550 5548 5545 5543 5541 5539 5538 5541 5538 5536 5534 5533 5532 5531 5531 5531 5531 5531 5531 5531 5532 5532 5533 5533 5533 5534 5534 5535 5536 5537 5538 5539 5540 5541 5542 5543 5545 5546
5555 5553 5551 5549 5546 5544 5542 5540 5538 5535 5533 5531 5531 5530 5529 5527 5526 5524 5523 5522 5521 5521 5520 5520 5520 5520 5520 5520 5520 5520 5521 5521 5521 5522 5523 5524 5524 5525 5526 5527 5528 5529 5530 5532
5549 5546 5544 5541 5539 5537 5534 5533 5530 5528 5525 5524 5523 5521 5519 5518 5516 5515 5514 5513 5512 5511 5510 5509 5509 5508 5508 5508 5508 5508 5508 5509 5509 5509 5510 5511 5511 5512 5512 5513 5514 5515 5516 5518
5542 5539 5537 5535 5532 5529 5527 5525 5523 5520 5518 5516 5515 5513 5511 5509 5507 5506 5504 5503 5502 5501 5500 5499 5498 5497 5497 5496 5496 5496 5496 5496 5497 5497 5498 5498 5498 5499 5499 5500 5500 5501 5502 5504
5536 5533 5529 5527 5525 5522 5520 5518 5515 5513 5510 5509 5506 5506 5503 5501 5499 5497 5495 5493 5492 5491 5489 5488 5487 5486 5485 5485 5484 5484 5484 5484 5484 5484 5485 5485 5486 5486 5486 5487 5487 5488 5489 5490
5529 5525 5522 5519 5518 5514 5515 5510 5507 5505 5503 5500 5498 5496 5494 5493 5491 5488 5485 5484 5482 5480 5479 5477 5476 5475 5474 5473 5473 5472 5472 5472 5472 5472 5472 5472 5473 5473 5474 5474 5475 5476 5477 5477
5522 5518 5515 5512 5509 5506 5505 5502 5499 5497 5495 5493 5490 5488 5486 5484 5482 5479 5476 5474 5472 5470 5468 5467 5465 5464 5463 5462 5461 5461 5460 5460 5459 5459 5460 5460 5460 5461 5461 5461 5462 5463 5464 5465
5514 5511 5508 5504 5501 5498 5498 5494 5491 5489 5487 5485 5482 5480 5477 5475 5473 5472 5468 5465 5463 5460 5458 5456 5454 5453 5451 5450 5449 5449 5448 5448 5447 5447 5447 5447 5447 5448 5448 5449 5449 5450 5451 5452
5506 5503 5500 5497 5493 5490 5489 5486 5483 5482 5480 5476 5473 5471 5468 5466 5463 5461 5458 5455 5453 5450 5448 5445 5444 5442 5440 5439 5438 5437 5436 5436 5435 5435 5435 5435 5435 5435 5436 5436 5437 5437 5439 5440
5498 5495 5492 5489 5486 5485 5480 5477 5476 5473 5469 5466 5464 5461 5459 5456 5453 5450 5448 5445 5442 5440 5437 5435 5433 5431 5429 5427 5426 5426 5425 5424 5423 5423 5423 5423 5423 5423 5423 5424 5424 5425 5426 5427
5490 5488 5484 5482 5480 5475 5471 5469 5466 5463 5461 5457 5455 5452 5449 5446 5443 5440 5437 5435 5432 5429 5427 5424 5422 5420 5418 5416 5415 5414 5414 5412 5412 5412 5411 5411 5411 5411 5412 5412 5413 5413 5414 5415
5482 5479 5475 5472 5470 5466 5463 5460 5457 5454 5451 5448 5445 5442 5439 5436 5433 5430 5427 5424 5421 5419 5416 5414 5412 5410 5408 5406 5404 5403 5402 5401 5401 5400 5400 5400 5400 5400 5400 5401 5401 5402 5403 5403
5474 5470 5466 5463 5461 5457 5454 5451 5448 5445 5442 5439 5436 5432 5429 5425 5422 5419 5416 5413 5411 5408 5405 5403 5401 5399 5397 5395 5394 5392 5391 5390 5390 5389 5389 5389 5389 5389 5389 5389 5390 5391 5391 5392
5465 5461 5458 5455 5452 5449 5446 5442 5439 5436 5433 5430 5426 5422 5418 5415 5411 5408 5405 5403 5400 5397 5395 5392 5390 5388 5386 5384 5383 5381 5380 5379 5379 5379 5378 5378 5378 5378 5378 5378 5379 5379 5380 5380